Weather History for Grand Forks AFB, ND

Change the Weather History Date:

Thursday, May 16, 2013

  Actual Average Record
Temperature  
Mean Temperature 56 °F -  
Max Temperature 73 °F 62 °F 80 °F (2008)
Min Temperature 38 °F 39 °F 28 °F (2002)
Degree Days  
Heating Degree Days 10    
Growing Degree Days 6 (Base 50)    
Moisture  
Dew Point 47 °F    
Average Humidity 77    
Maximum Humidity 100    
Minimum Humidity 26    
Precipitation  
Precipitation 0.33 in - - ()
Sea Level Pressure  
Sea Level Pressure 29.96 in    
Wind  
Wind Speed 5 mph (ENE)    
Max Wind Speed 17 mph    
Max Gust Speed 20 mph    
Visibility 10 miles    
Events Rain    
Averages and records for this station are not official NWS values.
T = Trace of Precipitation, MM = Missing Value Source: NWS Daily Summary

Daily Weather History Graph

Daily Weather History Graph

Search for Another Location

Airport:

Trip Planner

Search our weather history database for the weather conditions in past years. The results will help you decide how hot, cold, wet, or windy it might be!

Date:

Astronomy

May. 16, 2013 Rise Set
Actual Time 5:49 AM CDT 9:03 PM CDT
Civil Twilight 5:12 AM CDT 9:40 PM CDT
Nautical Twilight 4:23 AM CDT 10:29 PM CDT
Astronomical Twilight 3:22 AM CDT 11:31 PM CDT
Moon 11:32 AM CDT (5/16) 1:17 AM CDT (5/16)
Length of Visible Light 16h 28m
Length of Day
15h 13m
Waxing Crescent, 36% of the Moon is Illuminated
May 16
Waxing Crescent
May 17
First Quarter
May 24
Full
May 31
Last Quarter
Jun 8
New

Hourly Weather History & Observations

Time (CDT) Temp. Windchill Dew Point Humidity Pressure Visibility Wind Dir Wind Speed Gust Speed Precip Events Conditions
12:58 AM 55.9 °F - 39.6 °F 54% 29.90 in 10.0 mi East 5.8 mph - N/A   Clear
1:58 AM 46.9 °F - 38.3 °F 72% 29.92 in 10.0 mi North 2.3 mph - N/A   Clear
2:58 AM 43.2 °F 41.5 °F 37.9 °F 82% 29.92 in 10.0 mi NNE 3.5 mph - N/A   Clear
3:58 AM 40.8 °F 38.8 °F 36.9 °F 86% 29.93 in 10.0 mi NE 3.5 mph - N/A   Clear
4:58 AM 39.9 °F - 36.1 °F 86% 29.94 in 10.0 mi Calm Calm - N/A   Clear
5:58 AM 38.3 °F 34.8 °F 35.8 °F 91% 29.95 in 10.0 mi NNE 4.6 mph - N/A   Clear
6:58 AM 42.4 °F - 40.1 °F 91% 29.95 in 10.0 mi North 2.3 mph - N/A   Clear
7:58 AM 54.1 °F - 38.7 °F 56% 29.96 in 10.0 mi East 3.5 mph - N/A   Clear
8:58 AM 59.9 °F - 36.9 °F 42% 29.96 in 10.0 mi ESE 9.2 mph - N/A   Clear
9:58 AM 64.8 °F - 37.4 °F 36% 29.97 in 10.0 mi East 8.1 mph - N/A   Clear
10:58 AM 70.2 °F - 35.6 °F 28% 29.95 in 10.0 mi ESE 9.2 mph - N/A   Clear
11:58 AM 73.0 °F - 35.8 °F 26% 29.92 in 10.0 mi SE 8.1 mph 19.6 mph N/A   Clear
12:58 PM 73.0 °F - 36.5 °F 26% 29.94 in 10.0 mi SE 5.8 mph - N/A   Scattered Clouds
1:58 PM 70.5 °F - 39.4 °F 32% 29.96 in 10.0 mi SSW 17.3 mph - N/A   Overcast
2:32 PM 69.8 °F - 41.0 °F 35% 29.94 in 10.0 mi WNW 6.9 mph - N/A   Light Drizzle
2:58 PM 64.9 °F - 46.6 °F 51% 30.00 in 10.0 mi WSW 12.7 mph 19.6 mph 0.00 in Rain Light Rain
3:58 PM 58.8 °F - 51.6 °F 77% 30.02 in 9.0 mi West 8.1 mph - 0.02 in Rain Light Rain
4:58 PM 57.0 °F - 54.9 °F 92% 30.04 in 6.0 mi WNW 5.8 mph - 0.11 in Rain Light Rain
5:58 PM 56.7 °F - 55.8 °F 97% 30.01 in 9.0 mi NNE 2.3 mph - 0.05 in Rain Light Rain
6:58 PM 56.5 °F - 56.3 °F 99% 30.00 in 10.0 mi NE 3.5 mph - 0.05 in Rain Light Rain
7:58 PM 55.8 °F - 55.4 °F 99% 29.97 in 10.0 mi NE 3.5 mph - 0.05 in Rain Light Rain
8:58 PM 54.9 °F - 54.5 °F 99% 29.96 in 10.0 mi ENE 5.8 mph - 0.01 in   Light Drizzle
9:24 PM 55.4 °F - 53.6 °F 94% 29.94 in 10.0 mi ENE 5.8 mph - N/A   Mostly Cloudy
9:52 PM 55.4 °F - 53.6 °F 94% 29.95 in 10.0 mi NE 5.8 mph - N/A   Light Drizzle
9:58 PM 55.4 °F - 53.6 °F 94% 29.97 in 10.0 mi ENE 4.6 mph - 0.01 in   Light Drizzle
10:03 PM 55.4 °F - 53.6 °F 94% 29.95 in 10.0 mi ENE 4.6 mph - N/A   Overcast
10:19 PM 55.4 °F - 53.6 °F 94% 29.95 in 10.0 mi ENE 4.6 mph - N/A Rain Light Rain
10:34 PM 55.4 °F - 53.6 °F 94% 29.95 in 10.0 mi ENE 6.9 mph - N/A   Overcast
10:51 PM 53.6 °F - 53.6 °F 100% 29.95 in 10.0 mi NE 4.6 mph - N/A   Light Drizzle
10:58 PM 54.1 °F - 53.8 °F 99% 29.97 in 10.0 mi ENE 5.8 mph - 0.01 in Rain Light Rain
11:03 PM 53.6 °F - 53.6 °F 100% 29.95 in 9.0 mi East 8.1 mph - N/A Rain Light Rain
11:08 PM 55.4 °F - 53.6 °F 94% 29.95 in 9.0 mi East 5.8 mph - N/A Rain Light Rain
11:23 PM 55.4 °F - 53.6 °F 94% 29.95 in 10.0 mi East 5.8 mph - N/A   Overcast
11:58 PM 54.7 °F - 54.0 °F 97% 29.96 in 10.0 mi Variable 6.9 mph - 0.02 in   Overcast